Location: Borbetomagus
(49.6328°N, 8.3592°E)
Time: 20:25:30
(UTC+00:00)

Cosmos 2237 Rocket - Pass Details

Date: 19 May 2025
Orbit: 834 x 849 km, 71.0° (Epoch: 15 June)

Event Time Altitude Azimuth Distance (km) Brightness Sun altitude
Rises 23:40:48 0° 334° (NNW) 3,400 6.4 -20.3°
Reaches altitude 10° 23:43:45 10° 348° (NNW) 2,464 5.7 -20.2°
Maximum altitude 23:48:15 24° 41° (NE) 1,688 4.4 -20.2°
Drops below altitude 10° 23:52:46 10° 95° (E) 2,463 4.6 -20.1°
Sets 23:55:42 0° 109° (ESE) 3,397 5.2 -20.0°
